Voltar ao catálogo

STARLINK-35147

AtivoComunicaçõesVLEO
NORAD 65637·PAYLOAD·🇺🇸 United States

Lançado Sep 18, 2025 de Cape Canaveral Space Force Station

Loading…

Próximas Passagens (próximas 24 horas)

TLE

AtualizadoSource: CelesTrak SupGP

Época: Sep 14, 2026, 22:32 UTC

1 65637C 25210R   26257.93937500 -.00004566  00000+0 -13502-3 0  2578
2 65637  53.1566 143.7652 0000937  87.9444   7.4968 15.34367162    11

Acompanhe STARLINK-35147 em tempo real com AllMySat

Download on the App Store